{"data":{"norad_id":35752,"epoch":"2026-09-19T19:09:07.822080Z","epoch_age_seconds":74883,"freshness":"FRESH","line1":"1 35752U 09043A   26262.79800720 -.00000078  00000+0  00000+0 0  9993","line2":"2 35752  56.2656  23.7437 0051319  86.2347 234.0759  2.00576743125258","mean_motion":2.00576743,"eccentricity":0.0051319,"inclination_deg":56.2656,"raan_deg":23.7437,"arg_perigee_deg":86.2347,"mean_anomaly_deg":234.0759,"bstar":0,"rev_number":12525,"period_min":717.92969536852,"perigee_km":20044.751798674,"apogee_km":20317.349991391,"semimajor_km":26559.187895033,"source":"CELESTRAK","updated_at":"2026-09-20T09:00:46.086972Z"}}